Meteo Giornale » Osservazioni meteo Stati Uniti (USA) » Morehead

ore: 11:55 - Osservazioni Meteo Morehead
Lat. 38° 13' N Lon. 83° 35' W Alt. 320 metri s.l.m.

sereno

30 °C

Sereno

Temp. 24 Ore

22 °C

32 °C

Nord

0 Km/h

Dew point 22 °C

Umidità 62 %

Visibilità  10 Km

Il sole sorge alle ore 07:03

Il sole tramonta alle ore 20:05

Data e Ora Cielo e Fenomeni T °C DP °C Um. % Pres. hPa Vis. km Vento km/h
Oggi h: 11:55 sereno Sereno 30 22 62 1021 10 N 0
Oggi h: 11:35 sereno Sereno 29 23 70 1021 10 N 9.3
Oggi h: 11:15 sereno Sereno 29 22 66 1021 10 N 7.4
Oggi h: 11:05 sereno Sereno 28 22 69 1021 10 N 7.4
Oggi h: 11:00 sereno Sereno 27 22 74 1021 10 S 7.4
Oggi h: 10:47 sereno Sereno 27 22 74 1021 10 SO 9.3
Oggi h: 10:30 sereno Sereno 27 22 74 1021 10 N 9.3
Oggi h: 10:09 sereno Sereno 27 21 69 1020 10 SO 13
Oggi h: 09:48 sereno Sereno 26 21 73 1020 10 N 9.3
Oggi h: 09:29 sereno Sereno 24 22 88 1020 10 N 0
Oggi h: 09:14 sereno Sereno 24 22 88 1020 10 N 0
Oggi h: 08:54 sereno Sereno 23 22 94 1020 10 N 0
Oggi h: 08:39 sereno Sereno 23 21 88 1020 10 N 0
Oggi h: 08:20 sereno Sereno 23 21 88 1020 10 N 0
Oggi h: 08:06 sereno Sereno 22 21 94 1020 10 N 0
Oggi h: 07:47 sereno Sereno 22 21 94 1020 10 N 0
Oggi h: 07:27 sereno Sereno 22 21 94 1020 10 N 5.5
Oggi h: 07:08 sereno Sereno 22 21 94 1020 10 N 5.5
Oggi h: 06:45 sereno Sereno 22 21 94 1019 10 S/SE 7.4
Oggi h: 06:28 sereno Sereno 22 21 94 1019 10 N 0
Oggi h: 06:05 poco_nuvoloso Poco Nuvoloso 22 21 94 1019 10 N 0
Oggi h: 05:49 sereno Sereno 22 21 94 1019 10 N 0
Oggi h: 05:29 sereno Sereno 22 21 94 1019 10 N 0
Oggi h: 05:13 sereno Sereno 22 21 94 1019 10 N 0
Oggi h: 04:51 sereno Sereno 22 21 94 1019 10 N 5.5
Oggi h: 04:34 sereno Sereno 22 21 94 1019 10 N 5.5
Oggi h: 04:21 sereno Sereno 22 21 94 1019 10 N 5.5
Oggi h: 04:03 sereno Sereno 22 21 94 1019 10 N 5.5
Oggi h: 03:46 sereno Sereno 22 21 94 1019 10 N 0
Oggi h: 03:26 sereno Sereno 23 21 88 1019 10 N 0
Oggi h: 03:08 sereno Sereno 23 21 88 1019 10 N 0
Oggi h: 02:54 sereno Sereno 23 21 88 1019 10 N 0
Oggi h: 02:38 sereno Sereno 22 21 94 1019 10 N 0
Oggi h: 02:20 sereno Sereno 23 21 88 1019 10 N 0
Oggi h: 02:03 sereno Sereno 23 21 88 1019 10 N 0
Oggi h: 01:44 sereno Sereno 23 21 88 1019 10 N 5.5
Oggi h: 01:26 sereno Sereno 23 21 88 1019 10 N 0
Oggi h: 01:10 sereno Sereno 23 22 94 1019 10 N 0
Oggi h: 00:53 sereno Sereno 23 22 94 1019 10 N 0
Oggi h: 00:39 sereno Sereno 23 22 94 1019 10 N 0
Oggi h: 00:20 sereno Sereno 23 22 94 1019 10 N 0
Oggi h: 00:05 sereno Sereno 24 22 88 1019 10 N 0
Ieri h: 23:46 sereno Sereno 24 22 88 1019 10 N 0
Ieri h: 23:27 sereno Sereno 24 22 88 1020 10 N 0
Ieri h: 23:08 sereno Sereno 25 22 83 1020 10 N 0
Ieri h: 22:46 sereno Sereno 24 22 88 1019 10 N 0
Ieri h: 22:29 sereno Sereno 25 22 83 1019 10 N 5.5
Ieri h: 22:13 sereno Sereno 25 22 83 1019 10 N 5.5
Ieri h: 21:54 sereno Sereno 25 23 88 1019 10 N 0
Ieri h: 21:40 sereno Sereno 26 23 83 1019 10 N 0
Ieri h: 21:19 sereno Sereno 26 23 83 1019 10 N 5.5
Ieri h: 21:05 sereno Sereno 26 22 78 1019 10 N 5.5
Ieri h: 20:44 sereno Sereno 27 22 74 1019 10 N 5.5
Ieri h: 20:27 sereno Sereno 27 21 69 1019 10 N 0
Ieri h: 20:09 sereno Sereno 28 22 69 1018 10 N 0
Ieri h: 19:55 sereno Sereno 28 22 69 1018 10 N 0
Ieri h: 19:34 sereno Sereno 28 23 74 1018 10 N 0
Ieri h: 19:19 sereno Sereno 29 22 66 1018 10 N 0
Ieri h: 19:00 sereno Sereno 30 22 62 1018 10 N 0
Ieri h: 18:38 sereno Sereno 29 23 70 1018 10 N 0
Ieri h: 18:20 sereno Sereno 29 22 66 1018 10 N 0
Ieri h: 18:06 sereno Sereno 30 21 58 1018 10 N 0
Ieri h: 17:45 sereno Sereno 31 20 52 1018 10 N 0
Ieri h: 17:27 sereno Sereno 31 20 52 0 10 N 5.5
Ieri h: 17:06 poco_nuvoloso Poco Nuvoloso 32 20 49 1019 10 N 7.4
Ieri h: 16:47 poco_nuvoloso Poco Nuvoloso 32 20 49 1019 10 N 11.1
Ieri h: 16:27 sereno Sereno 32 20 49 1019 10 NO 11.1
Ieri h: 16:07 poco_nuvoloso Poco Nuvoloso 32 20 49 1019 10 NO 11.1
Ieri h: 15:48 molto_nuvoloso Molto Nuvoloso 31 21 55 1019 10 N 7.4
Ieri h: 15:19 poco_nuvoloso Poco Nuvoloso 32 19 46 1020 10 SO 9.3
Ieri h: 15:06 nuvoloso Nuvoloso 32 21 52 1020 10 SO 13
Ieri h: 14:39 molto_nuvoloso Molto Nuvoloso 30 22 62 1020 10 N 0
Ieri h: 14:10 nuvoloso Nuvoloso 31 21 55 1021 10 NO 9.3
Ieri h: 13:49 nuvoloso Nuvoloso 32 21 52 1021 10 N 9.3
Ieri h: 13:34 poco_nuvoloso Poco Nuvoloso 31 22 58 1021 10 O/SO 13
Ieri h: 13:15 sereno Sereno 31 22 58 1021 10 S/SO 9.3
Ieri h: 12:51 sereno Sereno 30 22 62 1021 10 O/SO 9.3
Ieri h: 12:33 sereno Sereno 30 22 62 1021 10 S/SO 13